TimeCDT,TemperatureF,Dew PointF,Humidity,Sea Level PressureIn,VisibilityMPH,Wind Direction,Wind SpeedMPH,Gust SpeedMPH,PrecipitationIn,Events,Conditions,WindDirDegrees,DateUTC
12:15 AM,51.8,39.2,62,30.14,10.0,NE,10.4,-,N/A,,Clear,40,2013-05-23 05:15:00
12:35 AM,50.0,39.2,66,30.15,10.0,NE,8.1,-,N/A,,Clear,50,2013-05-23 05:35:00
12:55 AM,48.2,39.2,71,30.15,10.0,NE,8.1,-,N/A,,Clear,40,2013-05-23 05:55:00
1:15 AM,48.2,39.2,71,30.16,10.0,NE,8.1,-,N/A,,Clear,40,2013-05-23 06:15:00
1:35 AM,48.2,39.2,71,30.17,10.0,NE,8.1,-,N/A,,Clear,40,2013-05-23 06:35:00
1:55 AM,48.2,37.4,66,30.18,10.0,NE,8.1,-,N/A,,Clear,40,2013-05-23 06:55:00
2:15 AM,46.4,37.4,71,30.19,10.0,NE,6.9,-,N/A,,Clear,50,2013-05-23 07:15:00
2:35 AM,46.4,37.4,71,30.19,10.0,NE,5.8,-,N/A,,Clear,40,2013-05-23 07:35:00
2:55 AM,44.6,37.4,76,30.20,10.0,NE,5.8,-,N/A,,Clear,40,2013-05-23 07:55:00
3:15 AM,44.6,37.4,76,30.21,10.0,NE,6.9,-,N/A,,Clear,40,2013-05-23 08:15:00
3:35 AM,44.6,37.4,76,30.22,10.0,NE,8.1,-,N/A,,Clear,40,2013-05-23 08:35:00
3:55 AM,42.8,37.4,81,30.23,10.0,NE,6.9,-,N/A,,Clear,40,2013-05-23 08:55:00
4:15 AM,42.8,35.6,76,30.24,10.0,NE,6.9,-,N/A,,Clear,40,2013-05-23 09:15:00
4:35 AM,42.8,37.4,81,30.24,10.0,NE,5.8,-,N/A,,Clear,40,2013-05-23 09:35:00
4:55 AM,42.8,35.6,76,30.25,10.0,NE,6.9,-,N/A,,Clear,40,2013-05-23 09:55:00
5:15 AM,42.8,35.6,76,30.26,10.0,NE,8.1,-,N/A,,Clear,40,2013-05-23 10:15:00
5:35 AM,41.0,35.6,81,30.27,10.0,NE,4.6,-,N/A,,Clear,50,2013-05-23 10:35:00
5:55 AM,41.0,35.6,81,30.28,10.0,NE,5.8,-,N/A,,Clear,40,2013-05-23 10:55:00
6:15 AM,41.0,35.6,81,30.28,10.0,NE,5.8,-,N/A,,Clear,50,2013-05-23 11:15:00
6:35 AM,42.8,35.6,76,30.29,10.0,NE,6.9,-,N/A,,Clear,50,2013-05-23 11:35:00
6:55 AM,44.6,35.6,71,30.30,10.0,NE,6.9,-,N/A,,Clear,50,2013-05-23 11:55:00
7:15 AM,44.6,35.6,71,30.30,10.0,ENE,8.1,-,N/A,,Clear,60,2013-05-23 12:15:00
7:35 AM,46.4,33.8,62,30.31,10.0,ENE,11.5,-,N/A,,Clear,60,2013-05-23 12:35:00
7:55 AM,46.4,33.8,62,30.32,10.0,ENE,9.2,-,N/A,,Clear,60,2013-05-23 12:55:00
8:15 AM,48.2,33.8,58,30.32,10.0,ENE,8.1,-,N/A,,Clear,60,2013-05-23 13:15:00
8:35 AM,48.2,35.6,62,30.32,10.0,ENE,10.4,-,N/A,,Clear,60,2013-05-23 13:35:00
8:55 AM,48.2,35.6,62,30.32,10.0,ENE,6.9,-,N/A,,Clear,60,2013-05-23 13:55:00
9:15 AM,48.2,35.6,62,30.33,10.0,ENE,5.8,-,N/A,,Clear,60,2013-05-23 14:15:00
9:35 AM,51.8,35.6,54,30.33,10.0,NE,8.1,-,N/A,,Clear,40,2013-05-23 14:35:00
9:55 AM,51.8,35.6,54,30.33,10.0,NNE,9.2,-,N/A,,Clear,30,2013-05-23 14:55:00
10:15 AM,51.8,35.6,54,30.33,10.0,NNE,9.2,-,N/A,,Clear,30,2013-05-23 15:15:00
10:35 AM,51.8,33.8,50,30.33,10.0,NE,9.2,-,N/A,,Clear,50,2013-05-23 15:35:00
10:55 AM,53.6,33.8,47,30.34,10.0,NE,10.4,-,N/A,,Clear,50,2013-05-23 15:55:00
11:15 AM,53.6,33.8,47,30.34,10.0,NE,8.1,-,N/A,,Clear,50,2013-05-23 16:15:00
11:35 AM,55.4,33.8,44,30.34,10.0,NNE,9.2,-,N/A,,Clear,20,2013-05-23 16:35:00
11:55 AM,55.4,33.8,44,30.34,10.0,ENE,8.1,-,N/A,,Clear,60,2013-05-23 16:55:00
12:15 PM,57.2,33.8,41,30.34,10.0,ENE,8.1,-,N/A,,Clear,60,2013-05-23 17:15:00
12:36 PM,57.2,33.8,41,30.34,10.0,ENE,10.4,17.3,N/A,,Clear,60,2013-05-23 17:36:00
12:55 PM,57.2,32.0,38,30.33,10.0,ENE,10.4,-,N/A,,Clear,60,2013-05-23 17:55:00
1:15 PM,57.2,33.8,41,30.33,10.0,ENE,9.2,-,N/A,,Clear,70,2013-05-23 18:15:00
1:35 PM,59.0,30.2,34,30.33,10.0,ENE,9.2,-,N/A,,Clear,60,2013-05-23 18:35:00
1:55 PM,59.0,30.2,34,30.33,10.0,NNE,10.4,-,N/A,,Clear,30,2013-05-23 18:55:00
2:15 PM,60.8,30.2,31,30.33,10.0,NNE,6.9,-,N/A,,Clear,30,2013-05-23 19:15:00
2:35 PM,60.8,30.2,31,30.32,10.0,East,9.2,-,N/A,,Clear,80,2013-05-23 19:35:00
2:55 PM,60.8,28.4,29,30.32,10.0,NNE,8.1,-,N/A,,Clear,30,2013-05-23 19:55:00
3:15 PM,62.6,32.0,32,30.32,10.0,NE,6.9,-,N/A,,Clear,40,2013-05-23 20:15:00
3:35 PM,62.6,33.8,34,30.31,10.0,NNE,9.2,-,N/A,,Clear,20,2013-05-23 20:35:00
3:55 PM,62.6,30.2,30,30.31,10.0,NE,10.4,-,N/A,,Clear,50,2013-05-23 20:55:00
4:15 PM,62.6,32.0,32,30.31,10.0,ENE,8.1,-,N/A,,Clear,70,2013-05-23 21:15:00
4:35 PM,64.4,33.8,32,30.30,10.0,NE,6.9,-,N/A,,Clear,50,2013-05-23 21:35:00
4:55 PM,64.4,33.8,32,30.30,10.0,ENE,6.9,-,N/A,,Clear,60,2013-05-23 21:55:00
5:15 PM,64.4,33.8,32,30.29,10.0,NNE,6.9,-,N/A,,Clear,30,2013-05-23 22:15:00
5:35 PM,64.4,30.2,28,30.29,10.0,North,5.8,-,N/A,,Clear,10,2013-05-23 22:35:00
5:55 PM,66.2,33.8,30,30.29,10.0,NE,6.9,-,N/A,,Clear,40,2013-05-23 22:55:00
6:15 PM,66.2,33.8,30,30.29,10.0,NNE,6.9,-,N/A,,Clear,30,2013-05-23 23:15:00
6:35 PM,66.2,33.8,30,30.29,10.0,NNE,4.6,-,N/A,,Clear,20,2013-05-23 23:35:00
6:55 PM,64.4,32.0,30,30.28,10.0,NE,8.1,-,N/A,,Clear,40,2013-05-23 23:55:00
7:15 PM,64.4,33.8,32,30.28,10.0,NE,6.9,-,N/A,,Clear,40,2013-05-24 00:15:00
7:35 PM,62.6,32.0,32,30.28,10.0,NE,8.1,-,N/A,,Clear,40,2013-05-24 00:35:00
7:55 PM,62.6,33.8,34,30.28,10.0,NE,5.8,-,N/A,,Clear,50,2013-05-24 00:55:00
8:15 PM,60.8,32.0,34,30.28,10.0,NE,5.8,-,N/A,,Clear,40,2013-05-24 01:15:00
8:35 PM,57.2,30.2,36,30.27,10.0,NE,6.9,-,N/A,,Clear,50,2013-05-24 01:35:00
8:55 PM,55.4,30.2,38,30.27,10.0,NE,6.9,-,N/A,,Clear,50,2013-05-24 01:55:00
9:15 PM,53.6,32.0,44,30.28,10.0,Calm,Calm,-,N/A,,Clear,0,2013-05-24 02:15:00
9:35 PM,51.8,32.0,47,30.28,10.0,Calm,Calm,-,N/A,,Clear,0,2013-05-24 02:35:00
9:55 PM,50.0,33.8,54,30.29,10.0,Calm,Calm,-,N/A,,Clear,0,2013-05-24 02:55:00
10:15 PM,48.2,33.8,58,30.30,10.0,Calm,Calm,-,N/A,,Clear,0,2013-05-24 03:15:00
10:35 PM,48.2,35.6,62,30.31,10.0,Calm,Calm,-,N/A,,Clear,0,2013-05-24 03:35:00
10:55 PM,46.4,33.8,62,30.31,10.0,Calm,Calm,-,N/A,,Clear,0,2013-05-24 03:55:00
11:15 PM,44.6,33.8,66,30.31,10.0,Calm,Calm,-,N/A,,Clear,0,2013-05-24 04:15:00
11:35 PM,44.6,33.8,66,30.31,10.0,Calm,Calm,-,N/A,,Clear,0,2013-05-24 04:35:00
11:55 PM,44.6,32.0,61,30.31,10.0,Calm,Calm,-,N/A,,Clear,0,2013-05-24 04:55:00